sat.trackr.live / text

‹ back to catalog

STARLINK-32282

NORAD 61006 · 2024-158S

PAYLOAD ACTIVE UNKNOWN

§ Identity

Operator
Country
US
Launch date
2024-09-05
Launch site
AFETR
Launch vehicle
Mass (kg)
RCS (m²)

Purposes: comms

External: N2YO · Heavens-Above · Gunter

§ Orbital elements

Epoch: 2026-09-21T07:12:48.002112Z

Period
93.85 min
Inclination
53.1601°
Eccentricity
0.0001287
Mean motion
15.34393360 rev/d
Perigee alt
461.8 km
Apogee alt
463.6 km
Semi-major
6,840.9 km
B*
7.6349e-5
RAAN
233.8535°
Arg perigee
91.8599°
Mean anomaly
268.2551°
Rev number
11,564

§ Raw data

STARLINK-322821 61006U 24158S   26264.30055558  .00002204  00000+0  76349-4 0  99942 61006  53.1601 233.8535 0001287  91.8599 268.2551 15.34393360115642

JSON: /api/v1/satellites/61006 · /tle

For live sub-satellite position, see the globe view (requires WebGL).

§ Visibility from observer

Set your observer location to see the next 7 days of passes ≥ 10°. The values pass through the URL so the page stays shareable.

No JS? Fill the form by hand. The geolocation button needs JavaScript.